Regional Weather Roundup
Issued by NWS Little Rock, AR

Home | Current Version | Previous Version | Graphics & Text | Print | Product List | Glossary On
Versions: 1 2 3 4 5 6 7 8 9 10 11 12 13 14 15 16 17 18 19 20 21 22 23 24 25 26 27 28 29 30 31 32 33 34 35 36 37 38 39 40 41 42 43 44 45 46 47 48 49 50
000
ASUS44 KLZK 310805
RWRLZK

WEATHER ROUNDUP FOR ARKANSAS
NATIONAL WEATHER SERVICE LITTLE ROCK AR
300 AM CDT SUN AUG 31 2014

NOTE: "FAIR" INDICATES FEW OR NO CLOUDS BELOW 12,000 FEET WITH NO
SIGNIFICANT WEATHER AND/OR OBSTRUCTIONS TO VISIBILITY.

ARZ001-003-010-029-310900-
NORTHWEST ARKANSAS

CITY           SKY/WX    TMP DP  RH WIND       PRES   REMARKS
FAYETTEVILLE   CLEAR     70  69  97 S5        29.97S
FORT SMITH     CLEAR     73  70  90 E3        29.94S
HARRISON       CLEAR     69  69 100 S5        29.98S
BENTONVILLE      N/A     70  66  88 S5        29.98S VSB 1/4
ROGERS         CLEAR     70  67  90 SE5       29.99R
HIGHFILL       CLEAR     70  67  90 S5        29.97R
$$

ARZ004-005-016-310900-
NORTH CENTRAL ARKANSAS

CITY           SKY/WX    TMP DP  RH WIND       PRES   REMARKS
BATESVILLE     CLOUDY    73  72  94 CALM      29.96S
FLIPPIN        CLEAR     70  66  88 CALM      29.97S
MTN HOME       PTCLDY    71  70  96 S5        29.97S
$$

ARZ040-041-310900-
WEST CENTRAL ARKANSAS

CITY           SKY/WX    TMP DP  RH WIND       PRES   REMARKS
MENA           MOCLDY    72  70  94 CALM      29.99S
MOUNT IDA      FOG       70  68  93 CALM      29.96S VSB 1/2
$$

ARZ009-017-025-026-028-310900-
NORTHEAST ARKANSAS

CITY           SKY/WX    TMP DP  RH WIND       PRES   REMARKS
CORNING          N/A     73  73 100 S3        29.97S
JONESBORO      LGT RAIN  73  72  96 CALM      29.96F
NEWPORT        CLOUDY    74  73  96 CALM      29.96F
WALNUT RIDGE   CLOUDY    73  68  83 CALM      29.96S
BLYTHEVILLE    CLOUDY    73  73 100 S5        29.97F
$$

ARZ022-023-033-042-044-310900-
CENTRAL ARKANSAS

CITY           SKY/WX    TMP DP  RH WIND       PRES   REMARKS
LITTLE ROCK    CLOUDY    76  70  82 SW5       29.96S
N LITTLE ROCK    N/A     74  72  93 SW5       29.96S
JACKSONVILLE   CLOUDY    75  72  89 W2        29.96S
SEARCY         CLOUDY    74  73  96 CALM      29.97S
HOT SPRINGS    PTCLDY    73  71  93 W5        29.97F
RUSSELLVILLE   PTCLDY    73  70  90 CALM      29.96S
CLINTON        CLOUDY    75  72  88 CALM      29.97F
$$

ARZ036-310900-
EAST ARKANSAS

CITY           SKY/WX    TMP DP  RH WIND       PRES   REMARKS
WEST MEMPHIS   LGT RAIN  74  74 100 S10       29.95S
$$

ARZ050-053-066-070-073-310900-
SOUTHWEST ARKANSAS

CITY           SKY/WX    TMP DP  RH WIND       PRES   REMARKS
ARKADELPHIA    PTSUNNY   72  72 100 CALM      29.97S
CAMDEN         CLOUDY    75  72  88 S3        29.97S
TEXARKANA      MOCLDY    75  74  96 S9        29.97R
EL DORADO      PTCLDY    74  73  97 S6        29.98S
DE QUEEN       PTCLDY    72  71  97 CALM      29.95S
$$

ARZ056-057-069-310900-
SOUTHEAST ARKANSAS

CITY           SKY/WX    TMP DP  RH WIND       PRES   REMARKS
PINE BLUFF     CLOUDY    74  72  93 S5        29.97S
STUTTGART      CLOUDY    75  72  88 SW9       29.97S
MONTICELLO     CLOUDY    76  73  91 SW10      29.98S

$$





USA.gov is the U.S. government's official web portal to all federal, state and local government web resources and services.